Tiempo cada hora Barrancabermeja

Hoy, 28 Febrero, Domingo

Tiempo Temperatura Precipitaciones Viento Presión Humedad
00:00 +24°C° 0.4 mm 0 mps 751 mmHg 90%
01:00 +24°C° 0.4 mm 0 mps 751 mmHg 91%
02:00 +23°C° 0.3 mm 0 mps 750 mmHg 92%
03:00 +23°C° 0.3 mm 0 mps 750 mmHg 93%
04:00 +23°C° 0.3 mm 0 mps 750 mmHg 94%
05:00 +23°C° 0.1 mm 0 mps 750 mmHg 94%
06:00 +23°C° 0.1 mm 0 mps 751 mmHg 93%
07:00 +24°C° 0.1 mm 0 mps 751 mmHg 92%
08:00 +26°C° 0 mm 0 mps 752 mmHg 80%
09:00 +29°C° 0 mm 0 mps 752 mmHg 68%
10:00 +32°C° 0 mm 0 mps 752 mmHg 56%
11:00 +33°C° 0 mm 0 mps 751 mmHg 51%
12:00 +35°C° 0 mm 0 mps 750 mmHg 46%
13:00 +36°C° 0 mm 0 mps 749 mmHg 42%
14:00 +37°C° 0 mm 1 mps 748 mmHg 43%
15:00 +37°C° 0 mm 1 mps 748 mmHg 45%
16:00 +36°C° 0 mm 1 mps 747 mmHg 46%
17:00 +34°C° 0 mm 1 mps 748 mmHg 56%
18:00 +32°C° 0 mm 1 mps 748 mmHg 65%
19:00 +29°C° 0 mm 1 mps 749 mmHg 74%
20:00 +29°C° 0.1 mm 1 mps 749 mmHg 77%
21:00 +26°C° 0.1 mm 0 mps 750 mmHg 79%
22:00 +25°C° 0.1 mm 0 mps 751 mmHg 81%
23:00 +25°C° 0.2 mm 0 mps 750 mmHg 84%

Mañana, 1 Marzo, Lunes

Tiempo Temperatura Precipitaciones Viento Presión Humedad
00:00 +24°C° 0.2 mm 0 mps 750 mmHg 86%
01:00 +24°C° 0.2 mm 0 mps 750 mmHg 88%
02:00 +24°C° 0.1 mm 0 mps 750 mmHg 90%
03:00 +23°C° 0.1 mm 0 mps 749 mmHg 91%
04:00 +23°C° 0.1 mm 0 mps 749 mmHg 92%
05:00 +23°C° 0 mm 0 mps 750 mmHg 91%
06:00 +23°C° 0 mm 0 mps 750 mmHg 90%
07:00 +24°C° 0 mm 0 mps 751 mmHg 89%
08:00 +27°C° 0 mm 0 mps 751 mmHg 75%
09:00 +30°C° 0 mm 0 mps 751 mmHg 61%
10:00 +33°C° 0 mm 0 mps 751 mmHg 48%
11:00 +34°C° 0 mm 0 mps 750 mmHg 43%
12:00 +36°C° 0 mm 0 mps 749 mmHg 39%
13:00 +37°C° 0 mm 0 mps 748 mmHg 35%
14:00 +40°C° 0 mm 1 mps 748 mmHg 36%
15:00 +39°C° 0 mm 1 mps 747 mmHg 37%
16:00 +37°C° 0 mm 1 mps 747 mmHg 38%
17:00 +35°C° 0 mm 1 mps 748 mmHg 48%
18:00 +32°C° 0 mm 1 mps 748 mmHg 58%
19:00 +30°C° 0 mm 1 mps 749 mmHg 68%
20:00 +29°C° 0 mm 1 mps 750 mmHg 71%
21:00 +26°C° 0 mm 0 mps 750 mmHg 73%
22:00 +26°C° 0 mm 0 mps 751 mmHg 75%
23:00 +25°C° 0.1 mm 0 mps 751 mmHg 78%

Pasado mañana, 2 Marzo, Martes

Tiempo Temperatura Precipitaciones Viento Presión Humedad
00:00 +24°C° 0.1 mm 0 mps 751 mmHg 80%
01:00 +24°C° 0.1 mm 0 mps 751 mmHg 83%
02:00 +23°C° 0.1 mm 0 mps 751 mmHg 84%
03:00 +23°C° 0.1 mm 0 mps 751 mmHg 86%
04:00 +23°C° 0.1 mm 0 mps 750 mmHg 87%
05:00 +23°C° 0 mm 0 mps 751 mmHg 86%
06:00 +23°C° 0 mm 0 mps 752 mmHg 86%
07:00 +23°C° 0 mm 0 mps 752 mmHg 85%
08:00 +26°C° 0 mm 0 mps 752 mmHg 72%
09:00 +29°C° 0 mm 0 mps 753 mmHg 60%
10:00 +32°C° 0 mm 0 mps 753 mmHg 48%
11:00 +34°C° 0 mm 0 mps 752 mmHg 43%
12:00 +35°C° 0 mm 0 mps 751 mmHg 39%
13:00 +37°C° 0 mm 0 mps 750 mmHg 34%
14:00 +36°C° 0 mm 0 mps 749 mmHg 35%
15:00 +35°C° 0 mm 0 mps 749 mmHg 36%
16:00 +37°C° 0 mm 1 mps 748 mmHg 36%
17:00 +34°C° 0 mm 1 mps 749 mmHg 46%
18:00 +32°C° 0 mm 1 mps 750 mmHg 56%
19:00 +29°C° 0 mm 1 mps 751 mmHg 65%
20:00 +28°C° 0.1 mm 1 mps 751 mmHg 69%
21:00 +28°C° 0.1 mm 1 mps 752 mmHg 73%
22:00 +27°C° 0.1 mm 1 mps 752 mmHg 77%
23:00 +26°C° 0.1 mm 1 mps 752 mmHg 78%

3 Marzo, Miércoles

Tiempo Temperatura Precipitaciones Viento Presión Humedad
00:00 +24°C° 0.1 mm 0 mps 752 mmHg 79%
01:00 +24°C° 0.1 mm 0 mps 752 mmHg 81%
02:00 +24°C° 0.1 mm 0 mps 752 mmHg 82%
03:00 +24°C° 0.1 mm 0 mps 752 mmHg 84%
04:00 +23°C° 0.1 mm 0 mps 751 mmHg 85%
05:00 +23°C° 0 mm 0 mps 752 mmHg 85%
06:00 +23°C° 0 mm 0 mps 752 mmHg 85%
07:00 +24°C° 0 mm 0 mps 753 mmHg 85%
08:00 +26°C° 0 mm 0 mps 753 mmHg 73%
09:00 +29°C° 0 mm 0 mps 753 mmHg 61%
10:00 +32°C° 0 mm 0 mps 753 mmHg 49%
11:00 +33°C° 0 mm 0 mps 752 mmHg 45%
12:00 +37°C° 0 mm 1 mps 751 mmHg 42%
13:00 +39°C° 0 mm 1 mps 750 mmHg 38%
14:00 +37°C° 0 mm 1 mps 750 mmHg 39%
15:00 +37°C° 0 mm 1 mps 750 mmHg 40%
16:00 +36°C° 0 mm 1 mps 749 mmHg 41%
17:00 +34°C° 0 mm 1 mps 750 mmHg 50%
18:00 +32°C° 0 mm 1 mps 750 mmHg 58%
19:00 +29°C° 0 mm 1 mps 751 mmHg 66%
20:00 +28°C° 0.2 mm 1 mps 751 mmHg 72%
21:00 +27°C° 0.2 mm 1 mps 752 mmHg 77%
22:00 +27°C° 0.2 mm 1 mps 753 mmHg 83%
23:00 +26°C° 0.3 mm 1 mps 752 mmHg 85%

4 Marzo, Jueves

Tiempo Temperatura Precipitaciones Viento Presión Humedad
00:00 +24°C° 0.3 mm 0 mps 752 mmHg 88%
01:00 +23°C° 0.3 mm 0 mps 752 mmHg 91%
02:00 +23°C° 0.5 mm 0 mps 752 mmHg 92%
03:00 +23°C° 0.5 mm 0 mps 752 mmHg 93%
04:00 +23°C° 0.5 mm 0 mps 752 mmHg 94%
05:00 +23°C° 0.2 mm 0 mps 753 mmHg 93%
06:00 +23°C° 0.2 mm 0 mps 753 mmHg 93%
07:00 +23°C° 0.2 mm 0 mps 753 mmHg 92%
08:00 +24°C° 0.3 mm 0 mps 754 mmHg 87%
09:00 +28°C° 0.3 mm 1 mps 754 mmHg 82%
10:00 +29°C° 0.3 mm 1 mps 754 mmHg 77%
11:00 +31°C° 0.3 mm 1 mps 753 mmHg 69%
12:00 +32°C° 0.3 mm 1 mps 752 mmHg 61%
13:00 +34°C° 0.3 mm 1 mps 751 mmHg 53%
14:00 +32°C° 0 mm 0 mps 751 mmHg 51%
15:00 +33°C° 0 mm 0 mps 750 mmHg 49%
16:00 +33°C° 0 mm 0 mps 750 mmHg 48%
17:00 +31°C° 0.1 mm 0 mps 750 mmHg 57%
18:00 +30°C° 0.1 mm 1 mps 750 mmHg 67%
19:00 +28°C° 0.1 mm 1 mps 751 mmHg 76%
20:00 +28°C° 0 mm 1 mps 751 mmHg 78%
21:00 +27°C° 0 mm 1 mps 752 mmHg 81%
22:00 +27°C° 0 mm 1 mps 753 mmHg 83%
23:00 +26°C° 0.4 mm 1 mps 752 mmHg 86%

5 Marzo, Viernes

Tiempo Temperatura Precipitaciones Viento Presión Humedad
00:00 +24°C° 0.4 mm 0 mps 752 mmHg 89%
01:00 +23°C° 0.4 mm 0 mps 752 mmHg 92%
02:00 +23°C° 1.3 mm 0 mps 752 mmHg 94%
03:00 +23°C° 1.3 mm 0 mps 752 mmHg 95%
04:00 +23°C° 1.3 mm 0 mps 752 mmHg 97%
05:00 +23°C° 1.3 mm 0 mps 752 mmHg 97%
06:00 +23°C° 1.3 mm 0 mps 753 mmHg 97%
07:00 +23°C° 1.3 mm 0 mps 753 mmHg 97%
08:00 +26°C° 0.4 mm 1 mps 753 mmHg 93%
09:00 +27°C° 0.4 mm 1 mps 753 mmHg 89%
10:00 +28°C° 0.4 mm 1 mps 753 mmHg 85%
11:00 +30°C° 0.4 mm 1 mps 752 mmHg 76%
12:00 +32°C° 0.4 mm 1 mps 751 mmHg 67%
13:00 +33°C° 0.4 mm 1 mps 750 mmHg 59%
14:00 +31°C° 0 mm 0 mps 750 mmHg 58%
15:00 +31°C° 0 mm 0 mps 749 mmHg 57%
16:00 +31°C° 0 mm 0 mps 749 mmHg 56%
17:00 +29°C° 0 mm 0 mps 749 mmHg 63%
18:00 +28°C° 0 mm 0 mps 750 mmHg 70%
19:00 +26°C° 0 mm 0 mps 750 mmHg 77%
20:00 +25°C° 0 mm 0 mps 750 mmHg 79%
21:00 +25°C° 0 mm 0 mps 751 mmHg 82%
22:00 +25°C° 0 mm 0 mps 752 mmHg 85%
23:00 +24°C° 0.1 mm 0 mps 751 mmHg 86%
Mostrar más

Necesitamos Su Consentimiento

Meteoprog y nuestros Proveedores de Servicios pueden almacenar y acceder a sus datos personales como cookies, identificadores de dispositivo u otras tecnologías similares de su dispositivo y procesar dichos datos para personalizar contenido y anuncios, además de ofrecer funciones de redes sociales y analizar el tráfico.

  • Almacenar y/o acceder a información en su dispositivo

    Se puede almacenar o acceder a cookies, identificadores de dispositivo u otra información de su dispositivo para los fines anteriormente indicados.

  • Anuncios y contenido personalizados, medición de anuncios y contenido, percepciones del público, y desarrollo de productos

    Los anuncios y el contenido pueden personalizarse en base a su perfil. Se pueden añadir más datos para personalizar mejor los anuncios y contenidos. Se puede medir el rendimiento de los anuncios y contenidos. Se puede obtener la percepción sobre el público que ha visto los anuncios y contenidos. Dichos datos pueden usarse para desarrollar o mejorar la experiencia del usuario, sistemas y software.

Al hacer clic en ‘Estoy De Acuerdo’ usted permitirá el uso de las cookies, identificadores de dispositivo, balizas web u otras tecnologías similares indicadas. Su configuración puede cambiarse desde el navegador de su dispositivo.

Para ciertos fines, los intereses legítimos pueden ser considerados por encima del consentimiento. Puede leer más sobre ello en nuestra Política de Privacidad y Cookies.